Change the Weather History Date:

Monday, January 20, 2014

  Actual Average Record
Temperature  
Mean Temperature 29 °F -  
Max Temperature 30 °F 30 °F 39 °F (2003)
Min Temperature 28 °F 24 °F 8 °F (2006)
Degree Days  
Heating Degree Days 36    
Moisture  
Dew Point 27 °F    
Average Humidity 95    
Maximum Humidity 100    
Minimum Humidity 82    
Precipitation  
Precipitation 0.20 in - - ()
Sea Level Pressure  
Sea Level Pressure 28.98 in    
Wind  
Wind Speed 30 mph (NW)    
Max Wind Speed 43 mph    
Max Gust Speed 50 mph    
Visibility 2 miles    
Events Fog , Snow    
Averages and records for this station are not official NWS values.
T = Trace of Precipitation, MM = Missing Value Source: NWS Daily Summary

Daily Weather History Graph

Daily Weather History Graph

Search for Another Location

Airport or City:

Trip Planner

Search our weather history database for the weather conditions in past years. The results will help you decide how hot, cold, wet, or windy it might be!

Date:

Astronomy

Jan. 20, 2014 Rise Set
Actual Time 10:36 AM AKST 6:24 PM AKST
Civil Twilight 9:51 AM AKST 7:08 PM AKST
Nautical Twilight 9:04 AM AKST 7:55 PM AKST
Astronomical Twilight 8:19 AM AKST 8:40 PM AKST
Moon No Moon Rise 11:42 AM AKST (1/20)
Length of Visible Light 9h 16m
Length of Day
7h 48m
Waning Gibbous, 81% of the Moon is Illuminated
Jan 20
Waning Gibbous
Jan 23
Last Quarter
Jan 30
New
Feb 6
First Quarter
Feb 14
Full

Hourly Weather History & Observations

Time (AKST) Temp. Windchill Dew Point Humidity Pressure Visibility Wind Dir Wind Speed Gust Speed Precip Events Conditions
12:01 AM 28.9 °F 13.7 °F 26.1 °F 89% 29.14 in 1.8 mi West 28.8 mph 38.0 mph 0.00 in Snow Light Snow
12:36 AM 28.0 °F 11.5 °F 26.1 °F 92% 29.12 in 1.2 mi NNW 33.4 mph 44.9 mph 0.00 in Snow Light Snow
12:44 AM 28.0 °F 11.8 °F 26.1 °F 92% 29.12 in 1.0 mi NNW 32.2 mph 41.4 mph 0.01 in Snow Light Snow
12:51 AM 28.4 °F 13.3 °F 26.6 °F 93% 29.12 in 1.2 mi North 27.6 mph 41.4 mph 0.01 in Snow Light Snow
12:53 AM 28.0 °F 12.0 °F 26.1 °F 92% 29.09 in 1.5 mi NNW 31.1 mph 41.4 mph 0.01 in Snow Light Snow
1:00 AM 28.9 °F 13.7 °F 27.0 °F 92% 29.12 in 2.5 mi NNW 28.8 mph 39.1 mph 0.00 in Snow Light Snow
1:23 AM 28.9 °F 13.5 °F 27.0 °F 92% 29.11 in 1.8 mi NNW 29.9 mph 39.1 mph 0.00 in Snow Light Snow
1:38 AM 28.9 °F 13.2 °F 26.1 °F 89% 29.10 in 2.5 mi NNW 31.1 mph 39.1 mph 0.00 in Snow Light Snow
1:46 AM 28.9 °F 13.5 °F 26.1 °F 89% 29.09 in 5.0 mi NNW 29.9 mph 36.8 mph 0.00 in Snow Light Snow
1:53 AM 28.9 °F 13.0 °F 26.1 °F 89% 29.05 in 8.0 mi NNW 32.2 mph 41.4 mph 0.00 in Snow Light Snow
2:36 AM 28.9 °F 13.0 °F 26.1 °F 89% 29.06 in 1.8 mi NNW 32.2 mph 40.3 mph 0.00 in Snow Light Snow
2:53 AM 28.9 °F 13.7 °F 26.1 °F 89% 29.03 in 2.0 mi NNW 28.8 mph 42.6 mph 0.00 in Snow Light Snow
3:04 AM 28.9 °F 12.3 °F 27.0 °F 92% 29.05 in 1.5 mi NNW 35.7 mph 41.4 mph 0.00 in Snow Light Snow
3:48 AM 28.4 °F 11.6 °F 26.6 °F 93% 29.03 in 1.0 mi NNW 35.7 mph 42.6 mph 0.00 in Snow Light Snow
3:53 AM 28.9 °F 12.8 °F 27.0 °F 92% 28.99 in 1.0 mi NNW 33.4 mph 43.7 mph 0.00 in Snow Light Snow
4:22 AM 28.0 °F 11.3 °F 28.0 °F 100% 29.01 in 0.8 mi NNW 34.5 mph 41.4 mph 0.00 in Snow Light Snow
4:38 AM 28.0 °F 11.1 °F 27.0 °F 96% 29.01 in 1.0 mi NNW 35.7 mph 43.7 mph 0.00 in Snow Light Snow
4:48 AM 28.4 °F 11.6 °F 28.4 °F 100% 29.01 in 1.2 mi NNW 35.7 mph 43.7 mph 0.00 in Snow Light Snow
4:53 AM 28.0 °F 11.8 °F 28.0 °F 100% 28.98 in 1.2 mi NNW 32.2 mph 40.3 mph 0.00 in Snow Light Snow
5:17 AM 28.0 °F 11.5 °F 27.0 °F 96% 29.00 in 1.0 mi NNW 33.4 mph 41.4 mph 0.00 in Snow Light Snow
5:34 AM 28.0 °F 11.3 °F 28.0 °F 100% 28.99 in 0.8 mi NNW 34.5 mph 41.4 mph 0.01 in Snow Light Snow
5:45 AM 28.0 °F 11.3 °F 28.0 °F 100% 28.98 in 1.0 mi NW 34.5 mph 44.9 mph 0.01 in Snow Light Snow
5:53 AM 28.0 °F 12.0 °F 28.0 °F 100% 28.95 in - NNW 31.1 mph 39.1 mph 0.01 in Snow Light Snow
6:02 AM 28.0 °F 11.1 °F 28.0 °F 100% 28.98 in 1.0 mi NNW 35.7 mph 42.6 mph 0.00 in Snow Light Snow
6:18 AM 28.0 °F 11.3 °F 28.0 °F 100% 28.97 in 0.8 mi NNW 34.5 mph 43.7 mph 0.00 in Snow Light Snow
6:50 AM 28.4 °F 11.6 °F 28.4 °F 100% 28.96 in 0.8 mi NW 35.7 mph 44.9 mph 0.01 in Snow Light Snow
6:53 AM 28.0 °F 12.0 °F 28.0 °F 100% 28.93 in 0.5 mi NW 31.1 mph 44.9 mph 0.01 in Fog , Snow Snow
7:07 AM 28.0 °F 12.3 °F 28.0 °F 100% 28.96 in 0.5 mi NNW 29.9 mph 42.6 mph 0.01 in Fog , Snow Snow
7:30 AM 28.0 °F 11.3 °F 28.0 °F 100% 28.95 in 0.8 mi NNW 34.5 mph 40.3 mph 0.01 in Snow Light Snow
7:33 AM 28.0 °F 11.5 °F 28.0 °F 100% 28.95 in 1.0 mi NW 33.4 mph 40.3 mph 0.01 in Snow Light Snow
7:40 AM 28.0 °F 12.8 °F 28.0 °F 100% 28.96 in 0.8 mi NNW 27.6 mph 43.7 mph 0.02 in Snow Light Snow
7:53 AM 28.9 °F 12.3 °F 28.9 °F 100% 28.91 in 0.5 mi NW 35.7 mph 44.9 mph 0.02 in Fog , Snow Snow
8:06 AM 28.9 °F 13.7 °F 28.9 °F 100% 28.96 in 0.5 mi NNW 28.8 mph 46.0 mph 0.01 in Fog , Snow Snow
8:41 AM 28.9 °F 12.5 °F 28.9 °F 100% 28.93 in 0.8 mi NNW 34.5 mph 46.0 mph 0.02 in Snow Light Snow
8:53 AM 28.0 °F 10.7 °F 28.0 °F 100% 28.90 in 0.5 mi NNW 38.0 mph 49.5 mph 0.03 in Fog , Snow Snow
9:05 AM 28.0 °F 9.9 °F 28.0 °F 100% 28.92 in 0.8 mi NNW 42.6 mph 48.3 mph 0.01 in Snow Light Snow
9:23 AM 28.0 °F 11.1 °F 28.0 °F 100% 28.92 in 0.8 mi NW 35.7 mph 49.5 mph 0.02 in Snow Light Snow
9:30 AM 28.0 °F 12.0 °F 28.0 °F 100% 28.93 in 1.2 mi NNW 31.1 mph 46.0 mph 0.02 in Snow Light Snow
9:53 AM 28.0 °F 12.5 °F 28.0 °F 100% 28.90 in 1.0 mi NW 28.8 mph 41.4 mph 0.02 in Snow Light Snow
10:04 AM 28.9 °F 13.7 °F 28.9 °F 100% 28.94 in 1.2 mi NW 28.8 mph 40.3 mph 0.00 in Snow Light Snow
10:33 AM 28.9 °F 13.2 °F 28.9 °F 100% 28.94 in 1.2 mi NW 31.1 mph 39.1 mph 0.01 in Snow Light Snow
10:53 AM 28.9 °F 14.0 °F 28.9 °F 100% 28.91 in 1.2 mi NW 27.6 mph 39.1 mph 0.01 in Snow Light Snow
11:00 AM 28.9 °F 13.7 °F 28.9 °F 100% 28.95 in 1.2 mi NW 28.8 mph 39.1 mph 0.00 in Snow Light Snow
11:03 AM 28.9 °F 13.2 °F 28.9 °F 100% 28.94 in 1.0 mi NW 31.1 mph 38.0 mph 0.00 in Snow Light Snow
11:10 AM 28.9 °F 14.3 °F 28.9 °F 100% 28.95 in 0.5 mi NW 26.5 mph 38.0 mph 0.00 in Fog , Snow Light Snow
11:18 AM 28.9 °F 14.0 °F 28.9 °F 100% 28.94 in 0.8 mi NW 27.6 mph 35.7 mph 0.00 in Snow Light Snow
11:26 AM 28.9 °F 14.5 °F 28.9 °F 100% 28.95 in 0.5 mi NW 25.3 mph 38.0 mph 0.00 in Fog , Snow Snow
11:35 AM 28.9 °F 13.5 °F 28.9 °F 100% 28.95 in 0.8 mi NW 29.9 mph 39.1 mph 0.01 in Snow Light Snow
11:44 AM 28.9 °F 14.8 °F 28.9 °F 100% 28.95 in 0.5 mi NW 24.2 mph 41.4 mph 0.01 in Fog , Snow Snow
11:53 AM 28.9 °F 14.0 °F 28.9 °F 100% 28.92 in 0.5 mi NW 27.6 mph 40.3 mph 0.01 in Fog , Snow Snow
12:53 PM 28.9 °F 12.8 °F 28.9 °F 100% 28.91 in 0.5 mi WNW 33.4 mph 42.6 mph 0.01 in Fog , Snow Snow
1:05 PM 28.9 °F 13.7 °F 28.9 °F 100% 28.95 in 0.8 mi WNW 28.8 mph 40.3 mph 0.00 in Snow Light Snow
1:15 PM 28.9 °F 14.3 °F 28.9 °F 100% 28.95 in 0.2 mi WNW 26.5 mph 39.1 mph 0.00 in Fog , Snow Snow
1:37 PM 28.9 °F 13.2 °F 28.9 °F 100% 28.95 in 0.2 mi NW 31.1 mph 42.6 mph 0.01 in Fog , Snow Heavy Snow
1:53 PM 28.9 °F 12.8 °F 28.9 °F 100% 28.90 in 0.2 mi WNW 33.4 mph 42.6 mph 0.02 in Fog , Snow Snow
2:18 PM 28.9 °F 13.2 °F 28.9 °F 100% 28.93 in 0.2 mi WNW 31.1 mph 39.1 mph 0.01 in Fog , Snow Snow
2:53 PM 28.9 °F 13.0 °F 28.9 °F 100% 28.91 in 0.2 mi WNW 32.2 mph 41.4 mph 0.02 in Fog , Snow Snow
3:16 PM 28.9 °F 14.5 °F 28.9 °F 100% 28.94 in 0.5 mi NW 25.3 mph 42.6 mph 0.01 in Fog , Snow Light Snow
3:45 PM 28.9 °F 14.5 °F 28.9 °F 100% 28.95 in 0.8 mi NW 25.3 mph 38.0 mph 0.01 in Snow Light Snow
3:53 PM 28.9 °F 14.3 °F 28.9 °F 100% 28.91 in 0.8 mi NW 26.5 mph 35.7 mph 0.01 in Snow Light Snow
4:13 PM 28.9 °F 14.8 °F 28.9 °F 100% 28.95 in 1.0 mi NW 24.2 mph 33.4 mph 0.00 in Snow Light Snow
4:17 PM 28.9 °F 14.5 °F 28.9 °F 100% 28.95 in 1.0 mi WNW 25.3 mph 34.5 mph 0.00 in Snow Light Snow
4:19 PM 28.9 °F 14.8 °F 28.9 °F 100% 28.95 in 1.0 mi WNW 24.2 mph 34.5 mph 0.00 in Snow Light Snow
4:23 PM 28.9 °F 14.8 °F 28.9 °F 100% 28.95 in 1.0 mi WNW 24.2 mph 34.5 mph 0.00 in Snow Light Snow
4:25 PM 28.9 °F 14.3 °F 28.9 °F 100% 28.95 in 0.8 mi WNW 26.5 mph 33.4 mph 0.00 in Snow Light Snow
4:35 PM 28.9 °F 13.7 °F 28.0 °F 96% 28.95 in 0.8 mi WNW 28.8 mph 38.0 mph 0.01 in Snow Light Snow
4:53 PM 28.0 °F 13.0 °F 28.0 °F 100% 28.92 in 0.8 mi NW 26.5 mph 35.7 mph 0.01 in Snow Light Snow
5:07 PM 28.9 °F 14.5 °F 28.0 °F 96% 28.96 in 1.0 mi WNW 25.3 mph 39.1 mph 0.00 in Snow Light Snow
5:13 PM 28.0 °F 12.3 °F 28.0 °F 100% 28.96 in 0.5 mi NW 29.9 mph 41.4 mph 0.00 in Fog , Snow Snow
5:24 PM 28.9 °F 14.0 °F 28.0 °F 96% 28.96 in 1.2 mi WNW 27.6 mph 35.7 mph 0.00 in Snow Light Snow
5:30 PM 28.9 °F 14.0 °F 28.0 °F 96% 28.97 in 0.8 mi NW 27.6 mph 35.7 mph 0.00 in Snow Light Snow
5:39 PM 28.9 °F 14.8 °F 28.0 °F 96% 28.97 in 1.2 mi WNW 24.2 mph 36.8 mph 0.00 in Snow Light Snow
5:53 PM 28.9 °F 13.5 °F 28.0 °F 96% 28.93 in 1.2 mi WNW 29.9 mph 36.8 mph 0.00 in Snow Light Snow
6:05 PM 28.9 °F 14.3 °F 27.0 °F 92% 28.97 in 1.5 mi WNW 26.5 mph 38.0 mph 0.00 in Snow Light Snow
6:42 PM 28.9 °F 14.0 °F 27.0 °F 92% 28.98 in 3.0 mi WNW 27.6 mph 38.0 mph 0.00 in Snow Light Snow
6:53 PM 28.9 °F 14.0 °F 27.0 °F 92% 28.95 in 2.5 mi WNW 27.6 mph 35.7 mph 0.00 in Snow Light Snow
7:53 PM 28.9 °F 14.3 °F 27.0 °F 92% 28.96 in 1.0 mi WNW 26.5 mph 35.7 mph 0.00 in Snow Light Snow
8:02 PM 28.9 °F 14.3 °F 27.0 °F 92% 29.00 in 1.5 mi WNW 26.5 mph 36.8 mph 0.00 in Snow Light Snow
8:19 PM 28.9 °F 15.8 °F 28.0 °F 96% 29.01 in 3.0 mi WNW 20.7 mph 33.4 mph 0.00 in Snow Light Snow
8:35 PM 28.9 °F 13.2 °F 26.1 °F 89% 29.01 in 2.5 mi WNW 31.1 mph 36.8 mph 0.00 in Snow Light Snow
8:51 PM 30.2 °F 16.2 °F 26.6 °F 86% 29.01 in 4.0 mi WNW 25.3 mph 34.5 mph 0.00 in   Overcast
8:53 PM 30.0 °F 15.2 °F 26.1 °F 85% 28.98 in 4.0 mi WNW 28.8 mph 33.4 mph 0.00 in   Overcast
9:06 PM 30.0 °F 16.3 °F 26.1 °F 85% 29.02 in 2.5 mi WNW 24.2 mph 34.5 mph 0.00 in Snow Light Snow
9:16 PM 28.9 °F 14.0 °F 27.0 °F 92% 29.02 in 1.2 mi WNW 27.6 mph 36.8 mph 0.01 in Snow Light Snow
9:42 PM 28.9 °F 14.3 °F 26.1 °F 89% 29.02 in 2.0 mi WNW 26.5 mph 36.8 mph 0.01 in Snow Light Snow
9:53 PM 28.9 °F 13.7 °F 26.1 °F 89% 28.98 in 3.0 mi WNW 28.8 mph 38.0 mph 0.01 in Snow Light Snow
10:02 PM 28.9 °F 14.0 °F 26.1 °F 89% 29.02 in 2.5 mi WNW 27.6 mph 38.0 mph 0.00 in Snow Light Snow
10:12 PM 30.0 °F 15.7 °F 26.1 °F 85% 29.02 in 3.0 mi WNW 26.5 mph 36.8 mph 0.00 in   Overcast
10:32 PM 28.9 °F 13.0 °F 25.0 °F 85% 29.02 in 2.5 mi WNW 32.2 mph 39.1 mph 0.00 in Snow Light Snow
10:38 PM 28.9 °F 13.2 °F 25.0 °F 85% 29.02 in 1.8 mi WNW 31.1 mph 40.3 mph 0.00 in Snow Light Snow
10:51 PM 28.4 °F 12.0 °F 24.8 °F 86% 29.03 in 2.0 mi WNW 33.4 mph 40.3 mph 0.00 in Snow Light Snow
10:53 PM 28.9 °F 13.0 °F 25.0 °F 85% 29.00 in 2.0 mi WNW 32.2 mph 40.3 mph 0.00 in Snow Light Snow
11:00 PM 30.0 °F 15.7 °F 25.0 °F 82% 29.04 in 1.8 mi WNW 26.5 mph 40.3 mph 0.00 in Snow Light Snow
11:05 PM 30.0 °F 15.4 °F 26.1 °F 85% 29.04 in 3.0 mi WNW 27.6 mph 36.8 mph 0.00 in Snow Light Snow
11:15 PM 30.0 °F 15.2 °F 25.0 °F 82% 29.04 in 4.0 mi WNW 28.8 mph 38.0 mph 0.00 in Snow Light Snow
11:33 PM 28.9 °F 13.2 °F 24.1 °F 82% 29.05 in 1.8 mi WNW 31.1 mph 41.4 mph 0.00 in Snow Light Snow
11:45 PM 28.9 °F 13.7 °F 24.1 °F 82% 29.05 in 3.0 mi WNW 28.8 mph 35.7 mph 0.00 in Snow Light Snow
11:53 PM 28.9 °F 14.8 °F 24.1 °F 82% 29.03 in 3.0 mi WNW 24.2 mph 35.7 mph 0.00 in Snow Light Snow